Time,TemperatureF,DewpointF,PressureIn,WindDirection,WindDirectionDegrees,WindSpeedMPH,WindSpeedGustMPH,Humidity,HourlyPrecipIn,Conditions,Clouds,dailyrainin,SoftwareType,DateUTC
2013-02-13 00:02:00,41.5,37.0,30.29,West,271,0.0,0.0,84,0.00,,,0.00,weatherlink.com 1.10,2013-02-13 08:02:00,
2013-02-13 00:17:00,41.0,37.0,30.29,West,271,0.0,0.0,85,0.00,,,0.00,weatherlink.com 1.10,2013-02-13 08:17:00,
2013-02-13 00:32:00,40.6,37.0,30.29,West,271,0.0,0.0,86,0.00,,,0.00,weatherlink.com 1.10,2013-02-13 08:32:00,
2013-02-13 00:47:00,40.6,37.0,30.29,West,271,0.0,0.0,85,0.00,,,0.00,weatherlink.com 1.10,2013-02-13 08:47:00,
2013-02-13 01:02:00,40.3,36.0,30.28,West,271,0.0,0.0,85,0.00,,,0.00,weatherlink.com 1.10,2013-02-13 09:02:00,
2013-02-13 01:17:00,40.4,36.0,30.28,West,271,0.0,0.0,85,0.00,,,0.00,weatherlink.com 1.10,2013-02-13 09:17:00,
2013-02-13 01:32:00,40.0,36.0,30.28,West,271,0.0,0.0,85,0.00,,,0.00,weatherlink.com 1.10,2013-02-13 09:32:00,
2013-02-13 01:48:00,39.7,36.0,30.27,West,271,0.0,0.0,86,0.00,,,0.00,weatherlink.com 1.10,2013-02-13 09:48:00,
2013-02-13 02:02:00,40.1,36.0,30.27,West,272,0.0,0.0,85,0.00,,,0.00,weatherlink.com 1.10,2013-02-13 10:02:00,
2013-02-13 02:17:00,40.2,36.0,30.26,West,271,0.0,0.0,85,0.00,,,0.00,weatherlink.com 1.10,2013-02-13 10:17:00,
2013-02-13 02:32:00,40.5,37.0,30.26,West,271,0.0,0.0,86,0.00,,,0.00,weatherlink.com 1.10,2013-02-13 10:32:00,
2013-02-13 02:47:00,40.8,36.0,30.26,West,271,0.0,0.0,84,0.00,,,0.00,weatherlink.com 1.10,2013-02-13 10:47:00,
2013-02-13 03:02:00,40.8,36.0,30.26,West,271,0.0,0.0,82,0.00,,,0.00,weatherlink.com 1.10,2013-02-13 11:02:00,
2013-02-13 03:17:00,40.9,36.0,30.26,West,271,0.0,0.0,83,0.00,,,0.00,weatherlink.com 1.10,2013-02-13 11:17:00,
2013-02-13 03:32:00,41.0,36.0,30.26,West,271,0.0,0.0,82,0.00,,,0.00,weatherlink.com 1.10,2013-02-13 11:32:00,
2013-02-13 03:48:00,40.2,36.0,30.25,West,271,0.0,0.0,84,0.00,,,0.00,weatherlink.com 1.10,2013-02-13 11:48:00,
2013-02-13 04:02:00,39.8,36.0,30.26,West,271,0.0,0.0,86,0.00,,,0.00,weatherlink.com 1.10,2013-02-13 12:02:00,
2013-02-13 04:17:00,39.5,36.0,30.25,West,271,0.0,0.0,87,0.00,,,0.00,weatherlink.com 1.10,2013-02-13 12:17:00,
2013-02-13 04:32:00,39.2,35.0,30.25,West,271,0.0,0.0,86,0.00,,,0.00,weatherlink.com 1.10,2013-02-13 12:32:00,
2013-02-13 04:47:00,38.7,36.0,30.26,West,271,0.0,0.0,88,0.00,,,0.00,weatherlink.com 1.10,2013-02-13 12:47:00,
2013-02-13 05:02:00,38.7,36.0,30.26,West,271,0.0,0.0,88,0.00,,,0.00,weatherlink.com 1.10,2013-02-13 13:02:00,
2013-02-13 05:17:00,38.9,35.0,30.26,West,271,0.0,0.0,87,0.00,,,0.00,weatherlink.com 1.10,2013-02-13 13:17:00,
2013-02-13 05:33:00,39.0,36.0,30.26,West,271,0.0,0.0,87,0.00,,,0.00,weatherlink.com 1.10,2013-02-13 13:33:00,
2013-02-13 05:48:00,38.8,35.0,30.27,West,271,0.0,0.0,87,0.00,,,0.00,weatherlink.com 1.10,2013-02-13 13:48:00,
2013-02-13 06:03:00,38.7,35.0,30.27,West,271,0.0,0.0,87,0.00,,,0.00,weatherlink.com 1.10,2013-02-13 14:03:00,
2013-02-13 06:18:00,38.6,35.0,30.27,West,271,0.0,0.0,87,0.00,,,0.00,weatherlink.com 1.10,2013-02-13 14:18:00,
2013-02-13 06:33:00,38.7,35.0,30.27,West,271,0.0,0.0,86,0.00,,,0.00,weatherlink.com 1.10,2013-02-13 14:33:00,
2013-02-13 06:48:00,38.9,35.0,30.27,West,271,0.0,0.0,85,0.00,,,0.00,weatherlink.com 1.10,2013-02-13 14:48:00,
2013-02-13 07:03:00,39.1,36.0,30.28,West,271,0.0,0.0,87,0.00,,,0.00,weatherlink.com 1.10,2013-02-13 15:03:00,
2013-02-13 07:18:00,40.6,36.0,30.28,West,271,0.0,0.0,83,0.00,,,0.00,weatherlink.com 1.10,2013-02-13 15:18:00,
2013-02-13 07:33:00,42.9,37.0,30.28,West,271,0.0,0.0,81,0.00,,,0.00,weatherlink.com 1.10,2013-02-13 15:33:00,
2013-02-13 07:48:00,46.8,38.0,30.29,North,8,0.0,1.0,71,0.00,,,0.00,weatherlink.com 1.10,2013-02-13 15:48:00,
2013-02-13 08:03:00,50.9,39.0,30.28,North,6,0.0,1.0,64,0.00,,,0.00,weatherlink.com 1.10,2013-02-13 16:03:00,
2013-02-13 08:18:00,53.8,39.0,30.28,ENE,77,0.0,1.0,57,0.00,,,0.00,weatherlink.com 1.10,2013-02-13 16:18:00,
2013-02-13 08:33:00,56.7,40.0,30.28,ENE,75,0.0,1.0,53,0.00,,,0.00,weatherlink.com 1.10,2013-02-13 16:33:00,
2013-02-13 08:48:00,58.9,41.0,30.28,ENE,67,0.0,1.0,52,0.00,,,0.00,weatherlink.com 1.10,2013-02-13 16:48:00,
2013-02-13 09:03:00,59.3,39.0,30.28,NNE,32,0.0,1.0,47,0.00,,,0.00,weatherlink.com 1.10,2013-02-13 17:03:00,
2013-02-13 09:19:00,60.6,38.0,30.28,SE,145,0.0,1.0,44,0.00,,,0.00,weatherlink.com 1.10,2013-02-13 17:19:00,
2013-02-13 09:34:00,62.0,38.0,30.28,SSE,166,0.0,1.0,42,0.00,,,0.00,weatherlink.com 1.10,2013-02-13 17:34:00,
2013-02-13 09:49:00,62.1,39.0,30.28,South,190,1.0,2.0,42,0.00,,,0.00,weatherlink.com 1.10,2013-02-13 17:49:00,
2013-02-13 10:03:00,63.2,39.0,30.28,SSE,167,2.0,3.0,41,0.00,,,0.00,weatherlink.com 1.10,2013-02-13 18:03:00,
2013-02-13 10:18:00,63.8,39.0,30.27,ESE,120,1.0,2.0,40,0.00,,,0.00,weatherlink.com 1.10,2013-02-13 18:18:00,
2013-02-13 10:49:00,65.8,38.0,30.27,South,191,0.0,3.0,36,0.00,,,0.00,weatherlink.com 1.10,2013-02-13 18:49:00,
2013-02-13 11:04:00,66.2,39.0,30.27,SSE,165,2.0,4.0,37,0.00,,,0.00,weatherlink.com 1.10,2013-02-13 19:04:00,
2013-02-13 11:19:00,65.5,42.0,30.26,SSW,197,0.0,3.0,43,0.00,,,0.00,weatherlink.com 1.10,2013-02-13 19:19:00,
2013-02-13 11:34:00,66.0,43.0,30.25,SSE,167,3.0,4.0,44,0.00,,,0.00,weatherlink.com 1.10,2013-02-13 19:34:00,
2013-02-13 11:49:00,66.8,43.0,30.25,SSE,156,2.0,4.0,43,0.00,,,0.00,weatherlink.com 1.10,2013-02-13 19:49:00,
2013-02-13 12:04:00,67.3,45.0,30.24,SSW,203,0.0,4.0,45,0.00,,,0.00,weatherlink.com 1.10,2013-02-13 20:04:00,
2013-02-13 12:19:00,68.2,46.0,30.23,West,264,0.0,3.0,46,0.00,,,0.00,weatherlink.com 1.10,2013-02-13 20:19:00,
2013-02-13 12:34:00,68.8,47.0,30.23,SSW,212,2.0,6.0,46,0.00,,,0.00,weatherlink.com 1.10,2013-02-13 20:34:00,
2013-02-13 12:49:00,68.0,48.0,30.21,SW,233,1.0,4.0,49,0.00,,,0.00,weatherlink.com 1.10,2013-02-13 20:49:00,
2013-02-13 13:04:00,67.7,48.0,30.21,SSW,207,2.0,5.0,49,0.00,,,0.00,weatherlink.com 1.10,2013-02-13 21:04:00,
2013-02-13 13:19:00,67.7,48.0,30.20,South,169,0.0,5.0,49,0.00,,,0.00,weatherlink.com 1.10,2013-02-13 21:19:00,
2013-02-13 13:34:00,68.4,44.0,30.20,WSW,257,0.0,3.0,41,0.00,,,0.00,weatherlink.com 1.10,2013-02-13 21:34:00,
2013-02-13 13:50:00,68.0,43.0,30.19,NNW,347,0.0,2.0,40,0.00,,,0.00,weatherlink.com 1.10,2013-02-13 21:50:00,
2013-02-13 14:05:00,66.6,41.0,30.19,WNW,301,0.0,2.0,39,0.00,,,0.00,weatherlink.com 1.10,2013-02-13 22:05:00,
2013-02-13 14:19:00,66.6,41.0,30.19,SSE,152,0.0,6.0,40,0.00,,,0.00,weatherlink.com 1.10,2013-02-13 22:19:00,
2013-02-13 14:49:00,65.4,42.0,30.18,South,186,0.0,3.0,42,0.00,,,0.00,weatherlink.com 1.10,2013-02-13 22:49:00,
2013-02-13 15:04:00,65.5,40.0,30.18,WSW,257,0.0,1.0,40,0.00,,,0.00,weatherlink.com 1.10,2013-02-13 23:04:00,
2013-02-13 15:19:00,65.1,39.0,30.17,SW,215,0.0,1.0,39,0.00,,,0.00,weatherlink.com 1.10,2013-02-13 23:19:00,
2013-02-13 15:35:00,64.8,36.0,30.17,WSW,242,1.0,1.0,34,0.00,,,0.00,weatherlink.com 1.10,2013-02-13 23:35:00,
2013-02-13 15:50:00,64.5,35.0,30.17,WSW,256,0.0,1.0,33,0.00,,,0.00,weatherlink.com 1.10,2013-02-13 23:50:00,
2013-02-13 16:04:00,64.1,37.0,30.17,West,278,0.0,1.0,37,0.00,,,0.00,weatherlink.com 1.10,2013-02-14 00:04:00,
2013-02-13 16:20:00,63.5,38.0,30.17,West,277,0.0,0.0,39,0.00,,,0.00,weatherlink.com 1.10,2013-02-14 00:20:00,
2013-02-13 16:35:00,62.9,40.0,30.16,West,278,0.0,1.0,43,0.00,,,0.00,weatherlink.com 1.10,2013-02-14 00:35:00,
2013-02-13 16:49:00,62.1,40.0,30.17,West,278,0.0,1.0,44,0.00,,,0.00,weatherlink.com 1.10,2013-02-14 00:49:00,
2013-02-13 17:04:00,61.1,35.0,30.17,West,278,0.0,0.0,38,0.00,,,0.00,weatherlink.com 1.10,2013-02-14 01:04:00,
2013-02-13 17:19:00,60.2,36.0,30.17,West,278,0.0,1.0,40,0.00,,,0.00,weatherlink.com 1.10,2013-02-14 01:19:00,
2013-02-13 17:49:00,58.0,35.0,30.18,West,274,0.0,0.0,42,0.00,,,0.00,weatherlink.com 1.10,2013-02-14 01:49:00,
2013-02-13 18:04:00,57.0,39.0,30.18,West,274,0.0,0.0,52,0.00,,,0.00,weatherlink.com 1.10,2013-02-14 02:04:00,
2013-02-13 18:19:00,56.1,43.0,30.18,West,274,0.0,1.0,61,0.00,,,0.00,weatherlink.com 1.10,2013-02-14 02:19:00,
2013-02-13 18:35:00,55.0,44.0,30.18,West,274,0.0,0.0,67,0.00,,,0.00,weatherlink.com 1.10,2013-02-14 02:35:00,
2013-02-13 18:49:00,54.2,44.0,30.18,NNW,345,0.0,1.0,69,0.00,,,0.00,weatherlink.com 1.10,2013-02-14 02:49:00,
2013-02-13 19:04:00,53.2,44.0,30.18,NNW,345,0.0,0.0,70,0.00,,,0.00,weatherlink.com 1.10,2013-02-14 03:04:00,
2013-02-13 19:19:00,52.6,43.0,30.18,NNW,345,0.0,0.0,69,0.00,,,0.00,weatherlink.com 1.10,2013-02-14 03:19:00,
2013-02-13 19:49:00,51.0,43.0,30.18,NNW,346,0.0,0.0,74,0.00,,,0.00,weatherlink.com 1.10,2013-02-14 03:49:00,
2013-02-13 20:04:00,50.4,43.0,30.19,NNW,345,0.0,0.0,76,0.00,,,0.00,weatherlink.com 1.10,2013-02-14 04:04:00,
2013-02-13 20:19:00,49.7,44.0,30.19,NNW,346,0.0,0.0,80,0.00,,,0.00,weatherlink.com 1.10,2013-02-14 04:19:00,
2013-02-13 21:05:00,48.4,44.0,30.19,NNW,346,0.0,0.0,84,0.00,,,0.00,weatherlink.com 1.10,2013-02-14 05:05:00,
2013-02-13 21:20:00,48.0,43.0,30.19,NNW,346,0.0,0.0,83,0.00,,,0.00,weatherlink.com 1.10,2013-02-14 05:20:00,
2013-02-13 21:35:00,47.4,43.0,30.19,NNW,345,0.0,0.0,84,0.00,,,0.00,weatherlink.com 1.10,2013-02-14 05:35:00,
2013-02-13 21:50:00,47.0,43.0,30.19,NNW,345,0.0,0.0,86,0.00,,,0.00,weatherlink.com 1.10,2013-02-14 05:50:00,
2013-02-13 22:05:00,46.5,43.0,30.19,NNW,345,0.0,0.0,86,0.00,,,0.00,weatherlink.com 1.10,2013-02-14 06:05:00,
2013-02-13 22:20:00,45.9,42.0,30.20,NNW,346,0.0,0.0,86,0.00,,,0.00,weatherlink.com 1.10,2013-02-14 06:20:00,
2013-02-13 22:35:00,45.5,42.0,30.20,NNW,345,0.0,0.0,87,0.00,,,0.00,weatherlink.com 1.10,2013-02-14 06:35:00,
2013-02-13 22:50:00,45.1,41.0,30.20,NNW,346,0.0,0.0,86,0.00,,,0.00,weatherlink.com 1.10,2013-02-14 06:50:00,
2013-02-13 23:05:00,44.8,41.0,30.20,NNW,345,0.0,0.0,86,0.00,,,0.00,weatherlink.com 1.10,2013-02-14 07:05:00,
2013-02-13 23:20:00,44.8,41.0,30.20,NNW,345,0.0,0.0,85,0.00,,,0.00,weatherlink.com 1.10,2013-02-14 07:20:00,
2013-02-13 23:35:00,45.0,40.0,30.20,NNW,346,0.0,0.0,83,0.00,,,0.00,weatherlink.com 1.10,2013-02-14 07:35:00,
2013-02-13 23:50:00,44.8,40.0,30.20,NNW,345,0.0,0.0,84,0.00,,,0.00,weatherlink.com 1.10,2013-02-14 07:50:00,